Home > Weather > Coburg > Past weeks

Flag for Germany Weather for the Past 2 Weeks in Coburg, Bavaria, Germany

Now
37 °F

Broken clouds.


Feels Like: 29 °F
Forecast: 35 / 40 °F
Wind: 13 mph from Southwest

Location: Hof Airport

Current Time: Feb 9, 2016 at 8:56:55 AM

Latest Report: Feb 9, 2016 at 7:50 AM


Visibility: N/A

Pressure: 29.56 "Hg

Humidity: 87%

Dew point: 34 °F

Location of CoburgLocation

Historic Weather in Coburg — Graph

°F

Coburg Temperature Yesterday

Maximum temperature yesterday: 45 °F (at 2:20 PM)
Minimum temperature yesterday: 36 °F (at 7:20 AM)
Average temperature yesterday: 41 °F

High & Low Weather Summary for the Past Weeks

 TemperatureHumidityPressure
High50 °F (Jan 27, 1:20 PM)94% (Feb 1, 7:50 AM)30.36 "Hg (Feb 1, 7:50 AM)
Low30 °F (Feb 3, 7:50 PM)57% (Jan 29, 2:20 PM)29.45 "Hg (Feb 8, 2:20 PM)
Average40 °F81%30.02 "Hg
* Reported Jan 25 7:20 AM — Feb 9 7:50 AM, Coburg, Weather by CustomWeather, © 2016

Note: Actual official high and low records may vary slightly from our data, if they occured in-between our weather recording intervals... More about our weather records

Advertising

Coburg Weather History for the Previous 24 Hours

 ConditionsComfort  
Time TempWeatherWind HumidityBarometerVisibility
7:50 AM
Tue, Feb 9
37 °FBroken clouds.13 mph87%29.56 "HgN/A
7:50 PM
Mon, Feb 8
37 °FPassing clouds.13 mph87%29.50 "HgN/A
7:20 PM41 °FLight rain. Overcast.17 mph87%29.47 "Hg3 mi
6:50 PM39 °FPartly cloudy.14 mph87%29.50 "HgN/A
6:20 PM41 °FHeavy rain. Passing clouds.22 mph87%29.50 "Hg2 mi
5:50 PM41 °FLight rain. Passing clouds.20 mph81%29.47 "HgN/A
5:20 PM41 °FRain. Passing clouds.23 mph81%29.47 "Hg4 mi
4:50 PM41 °FRain. Partly sunny.16 mph87%29.47 "Hg3 mi
4:20 PM41 °FRain. Partly sunny.21 mph87%29.47 "Hg4 mi
3:50 PM45 °FRain. Partly sunny.20 mph76%29.45 "HgN/A
3:20 PM45 °FRain. Overcast.20 mph71%29.45 "HgN/A
2:50 PM45 °FLight rain. Scattered clouds.22 mph71%29.45 "HgN/A
2:20 PM45 °FScattered clouds.20 mph71%29.45 "HgN/A
1:50 PM43 °FDrizzle. Partly sunny.21 mph81%29.47 "HgN/A
1:20 PM43 °FPartly sunny.20 mph81%29.47 "HgN/A
12:50 PM41 °FRain. Overcast.28 mph81%29.50 "Hg4 mi
12:20 PM43 °FScattered clouds.29 mph66%29.50 "HgN/A
11:50 AM43 °FScattered clouds.28 mph66%29.53 "HgN/A
11:20 AM43 °FPartly sunny.31 mph66%29.53 "HgN/A
10:50 AM43 °FPartly sunny.29 mph66%29.53 "HgN/A
10:20 AM41 °FPassing clouds.28 mph66%29.53 "HgN/A
9:50 AM39 °FScattered clouds.26 mph70%29.56 "HgN/A
9:20 AM39 °FScattered clouds.18 mph70%29.59 "HgN/A
8:50 AM37 °FPartly sunny.17 mph75%29.59 "HgN/A
8:20 AM39 °FPartly sunny.21 mph70%29.59 "HgN/A
Weather by CustomWeather, © 2016

See weather overviewHow to use our weather pages